Lihue, HI

12:05 PM HST on February 23, 2017 (GMT -1000)
Lihue

Weather History for PHLI - November, 2013

Change the Weather History Date:

Monday, November 4, 2013

  Actual Average Record
Temperature  
Mean Temperature 76 °F 77 °F  
Max Temperature 82 °F 82 °F 86 °F (2006)
Min Temperature 70 °F 72 °F 61 °F (1992)
Degree Days  
Heating Degree Days 0 0  
Month to date heating degree days 0 0  
Since 1 July heating degree days 0 0  
Cooling Degree Days 11 12  
Month to date cooling degree days 50 48  
Year to date cooling degree days 3196 3415  
Growing Degree Days 26 (Base 50)    
Moisture  
Dew Point 68 °F    
Average Humidity 79    
Maximum Humidity 90    
Minimum Humidity 67    
Precipitation  
Precipitation 0.01 in 0.15 in 3.22 in (1989)
Month to date precipitation 0.57 0.59  
Year to date precipitation 28.13 27.98  
Snow  
Snow 0.00 in - - ()
Month to date snowfall 0.0  
Since 1 July snowfall 0.0  
Since 1 September snowfall 0.0  
Snow Depth 0.00 in    
Sea Level Pressure  
Sea Level Pressure 30.04 in    
Wind  
Wind Speed 11 mph (NNE)    
Max Wind Speed 18 mph    
Max Gust Speed 24 mph    
Visibility 9 miles    
Events Rain    
T = Trace of Precipitation, MM = Missing Value Source: NWS Daily Summary

Daily Weather History Graph

Daily Weather History Graph

Search for Another Location

Airport or City:

Trip Planner

Search our weather history database for the weather conditions in past years. The results will help you decide how hot, cold, wet, or windy it might be!

Date:

Astronomy

Nov. 04, 2013 Rise Set
Actual Time 6:42 AM HST 5:58 PM HST
Civil Twilight 6:19 AM HST 6:21 PM HST
Nautical Twilight 5:53 AM HST 6:48 PM HST
Astronomical Twilight 5:26 AM HST 7:14 PM HST
Moon 7:58 AM HST (11/4) 7:22 PM HST (11/4)
Length of Visible Light 12h 01m
Length of Day
11h 15m
Waxing Crescent, 3% of the Moon is Illuminated
Nov 4
Waxing Crescent
Nov 9
First Quarter
Nov 17
Full
Nov 25
Last Quarter
Dec 2
New

Hourly Weather History & Observations

Time (HST) Temp. Heat Index Dew Point Humidity Pressure Visibility Wind Dir Wind Speed Gust Speed Precip Events Conditions
12:28 AM 75.2 °F - 66.2 °F 73% 30.08 in 10.0 mi NNE 5.8 mph - N/A   Mostly Cloudy
12:53 AM 73.9 °F - 66.9 °F 79% 30.07 in 10.0 mi NNW 8.1 mph - N/A   Mostly Cloudy
1:00 AM 73.4 °F - 66.2 °F 78% 30.08 in - NNW 8.1 mph - N/A   Scattered Clouds
1:53 AM 72.0 °F - 66.9 °F 84% 30.06 in 10.0 mi NW 5.8 mph - 0.00 in Rain Light Rain
2:53 AM 72.0 °F - 66.9 °F 84% 30.04 in 10.0 mi North 6.9 mph - 0.00 in   Scattered Clouds
3:46 AM 69.8 °F - 66.2 °F 88% 30.04 in 10.0 mi WNW 4.6 mph - 0.00 in   Mostly Cloudy
3:53 AM 70.0 °F - 66.9 °F 90% 30.03 in 10.0 mi NW 6.9 mph - 0.00 in   Mostly Cloudy
4:12 AM 69.8 °F - 66.2 °F 88% 30.04 in - NW 5.8 mph - N/A   Scattered Clouds
4:53 AM 72.0 °F - 66.9 °F 84% 30.03 in - North 6.9 mph - N/A   Partly Cloudy
5:53 AM 72.0 °F - 66.9 °F 84% 30.04 in - NNW 8.1 mph - N/A   Scattered Clouds
6:22 AM 71.6 °F - 66.2 °F 83% 30.05 in 10.0 mi North 6.9 mph - N/A   Mostly Cloudy
6:29 AM 71.6 °F - 66.2 °F 83% 30.06 in 10.0 mi North 5.8 mph - N/A   Partly Cloudy
6:53 AM 72.0 °F - 66.9 °F 84% 30.05 in 10.0 mi North 8.1 mph - N/A   Scattered Clouds
7:51 AM 77.0 °F - 68.0 °F 74% 30.07 in 10.0 mi NNE 16.1 mph - N/A   Mostly Cloudy
7:53 AM 77.0 °F - 68.0 °F 74% 30.06 in 10.0 mi NNE 13.8 mph - N/A   Mostly Cloudy
8:53 AM 79.0 °F - 68.0 °F 69% 30.07 in 10.0 mi NE 16.1 mph - N/A   Scattered Clouds
9:53 AM 80.1 °F 82.7 °F 68.0 °F 67% 30.08 in 10.0 mi NE 15.0 mph - 0.00 in   Clear
10:53 AM 81.0 °F 83.8 °F 68.0 °F 65% 30.06 in 10.0 mi NE 15.0 mph - N/A   Partly Cloudy
11:53 AM 81.0 °F 83.8 °F 68.0 °F 65% 30.04 in 10.0 mi NE 15.0 mph - N/A   Scattered Clouds
12:53 PM 81.0 °F 84.4 °F 70.0 °F 69% 30.01 in 10.0 mi NE 13.8 mph - 0.00 in   Mostly Cloudy
1:53 PM 81.0 °F 84.4 °F 70.0 °F 69% 29.99 in 9.0 mi NE 12.7 mph - N/A   Partly Cloudy
2:53 PM 80.1 °F 82.7 °F 68.0 °F 67% 29.98 in 10.0 mi NE 10.4 mph - N/A   Clear
3:53 PM 80.1 °F 82.7 °F 68.0 °F 67% 29.99 in 9.0 mi NE 12.7 mph - N/A   Clear
4:53 PM 77.0 °F - 69.1 °F 76% 30.00 in 10.0 mi NE 13.8 mph - 0.01 in   Mostly Cloudy
5:28 PM 77.0 °F - 69.8 °F 78% 30.01 in 4.0 mi NE 12.7 mph - 0.00 in Rain Light Rain
5:37 PM 75.2 °F - 69.8 °F 83% 30.02 in 8.0 mi NE 16.1 mph - 0.00 in   Mostly Cloudy
5:53 PM 75.9 °F - 69.1 °F 79% 30.01 in 8.0 mi NE 11.5 mph - 0.00 in   Mostly Cloudy
6:53 PM 75.0 °F - 69.1 °F 82% 30.02 in 8.0 mi NE 10.4 mph - N/A   Mostly Cloudy
7:05 PM 75.2 °F - 69.8 °F 83% 30.03 in 9.0 mi NE 13.8 mph - N/A   Scattered Clouds
7:53 PM 75.0 °F - 69.1 °F 82% 30.04 in 6.0 mi NNE 12.7 mph - N/A   Haze
8:41 PM 73.4 °F - 68.0 °F 83% 30.06 in 10.0 mi NNW 6.9 mph - 0.00 in   Mostly Cloudy
8:53 PM 73.9 °F - 68.0 °F 82% 30.05 in 10.0 mi North 9.2 mph - 0.00 in   Mostly Cloudy
9:19 PM 73.4 °F - 68.0 °F 83% 30.06 in 9.0 mi NNW 4.6 mph - N/A   Overcast
9:53 PM 75.9 °F - 69.1 °F 79% 30.05 in 8.0 mi NE 11.5 mph - N/A   Mostly Cloudy
10:44 PM 75.2 °F - 69.8 °F 83% 30.05 in 9.0 mi Variable 4.6 mph - N/A   Mostly Cloudy
10:53 PM 75.9 °F - 69.1 °F 79% 30.05 in 9.0 mi NE 11.5 mph - N/A   Mostly Cloudy
11:53 PM 75.9 °F - 69.1 °F 79% 30.04 in 7.0 mi NE 9.2 mph - N/A   Partly Cloudy